SCP
-0 -0 -0 -0 -0 -0 0 0 0 0 0 0 0 0 0 0 0 0 0 0 0 0 0 0 0 0 0 0 0 0 0 0 0 0 0 0 0 0 0 0 0 0 0
-0 -0 -0 -0 -0 -0 0 0 0 0 0 0 0 0 0 0 0 0 0 0 0 0 0 0 0 0 0 0 0 0 0 0 0 0 0 0 0 0 0 0 0 0 0
0 -0 -0 0 0 0 0 0 0 0 0 0 0 0 0 0 0 0 0 0 0 0 0 0 0 0 0 0 0 0 0 0 0 0 0 0 0 0 0 0 0 0 0
0 0 0 0 0 0 0 0 0 0 0 0 0 0 0 0 0 0 0 0 0 0 0 0 0 0 0 0 0 0 0 0 0 0 0 0 0 0 0 0 0 0 0
0 0 0 0 0 0 0 0 0 0 0 0 0 0 0 0 0 0 0 0 0 0 0 0 0 0 0 0 0 0 0 0 0 0 0 0 0 0 0 0 0 0 0
0 0 0 0 0 0 0 0 0 0 0 0 0 0 0 0 0 0 0 0 0 0 0 0 0 0 0 0 0 0 0 0 0 0 0 0 0 0 0 0 0 0 0
0 0 0 0 0 0 0 0 0 0 0 0 0 0 0 0 0 0 0 0 0 0 0 0 0 0 0 0 0 0 0 0 0 0 0 0 0 0 0 0 0 0 0
0 0 0 0 0 0 0 0 0 0 0 0 0 0 0 0 0 0 0 0 0 0 0 0 0 0 0 0 0 0 0 0 0 0 0 0 0 0 0 0 0 0 0
0 0 0 0 0 0 0 0 0 0 0 0 0 0 0 0 0 0 0 0 0 0 0 0 0 0 0 0 0 0 0 0 0 0 0 0 0 0 0 0 0 0 0
0 0 0 0 0 0 0 0 0 0 0 0 0 0 0 0 0 0 0 0 0 0 0 0 0 0 0 0 0 0 0 0 0 0 0 0 0 0 0 0 0 0 0
0 0 0 0 0 0 0 0 0 0 0 0 0 0 0 0 0 0 0 0 0 0 0 0 0 0 0 0 0 0 0 0 0 0 0 0 0 0 0 0 0 0 0
0 0 0 0 0 0 0 0 0 0 0 0 0 0 0 0 0 0 0 0 0 0 0 0 0 0 0 0 0 0 0 0 0 -0 0 0 0 0 0 0 0 0 0
0 0 0 0 0 0 0 0 0 0 0 0 0 0 0 0 0 0 0 0 0 0 0 0 0 0 0 0 0 0 0 0 -0 -0 0 0 0 0 0 0 0 0 0
0 0 0 0 0 0 0 0 0 0 0 0 0 0 0 0 0 0 0 0 0 0 0 0 0 0 0 0 0 0 0 0 -0 -0 0 0 0 0 0 0 0 0 0
0 0 0 0 0 0 0 0 0 0 0 0 0 0 0 0 0 0 0 0 0 0 0 0 0 0 0 0 0 0 0 0 0 0 0 0 0 0 0 0 0 0 0
0 0 0 0 0 0 0 0 0 0 0 0 0 0 0 0 0 0 0 0 0 0 0 0 0 0 0 0 0 0 0 0 0 0 0 0 0 0 0 0 0 0 0
0 0 0 0 0 0 0 0 0 0 0 0 0 0 0 0 0 0 0 0 0 0 0 0 0 0 0 0 0 0 0 0 0 0 0 0 0 0 0 0 0 0 0
0 0 0 0 0 0 0 0 0 0 0 0 0 0 0 0 0 0 0 0 0 0 0 0 0 0 0 0 0 0 0 0 0 0 0 0 0 0 0 0 0 0 0
0 0 0 0 0 0 0 0 0 0 0 0 0 0 0 0 0 0 0 0 0 0 0 0 0 0 0 0 0 0 0 0 0 0 0 0 0 0 0 0 0 0 0
0 0 0 0 0 0 0 0 0 0 0 0 0 0 0 0 0 0 0 0 0 0 0 0 0 0 0 0 0 0 0 0 0 0 0 0 0 0 0 0 0 0 0
0 0 0 0 0 0 0 0 0 0 0 0 0 0 0 0 0 0 0 0 0 0 0 0 0 0 0 0 0 0 0 0 0 0 0 0 0 0 0 0 0 0 0
0 0 0 0 0 0 0 0 0 0 0 0 0 0 0 0 0 0 0 0 0 0 0 0 0 0 0 0 0 0 0 0 0 0 0 0 0 0 0 0 0 0 0
0 0 0 0 0 0 0 0 0 0 0 0 0 0 0 0 0 0 0 0 0 0 0 0 0 0 0 0 0 0 0 0 0 0 0 0 0 0 0 0 0 0 0
0 0 0 0 0 0 0 0 0 0 0 0 0 0 0 0 0 0 0 0 0 0 0 0 0 0 0 0 0 0 0 0 0 0 0 0 0 0 0 0 0 0 0
0 0 0 0 0 0 0 0 0 0 0 0 0 0 0 0 0 0 0 0 0 0 0 0 0 0 0 0 0 0 0 0 0 0 0 0 0 0 0 0 0 0 0
0 0 0 0 0 0 0 0 0 0 0 0 0 0 0 0 0 0 0 0 0 0 0 0 0 0 0 0 0 0 0 0 0 0 0 0 0 0 0 0 0 0 0
Wind_Speed
3 3 7 9 9 9 9 9 9 9 10 10 9 9 9 8 8 7 6 5 5 4 4 4 4 5 6 6 7 7 7 8 8 8 8 8 7 7 7 8 7 5 9
5 4 8 9 8 8 8 8 8 8 8 8 8 8 8 8 7 6 6 5 5 4 4 4 3 4 5 5 6 6 6 7 7 7 7 7 7 7 7 7 7 4 8
6 5 7 9 9 8 8 8 8 8 8 7 7 7 7 7 7 6 5 5 5 4 4 3 3 3 4 4 5 5 5 6 7 7 6 3 3 6 6 7 7 7 7
6 5 5 9 8 8 8 8 8 8 7 7 7 7 7 6 6 6 6 5 5 5 4 4 3 3 3 3 3 4 4 4 6 7 3 2 2 5 6 6 7 6 6
5 4 5 9 9 8 8 8 8 8 8 7 7 7 7 6 6 6 6 5 5 5 4 4 3 3 3 3 2 3 3 4 6 5 3 2 2 4 6 5 6 6 5
2 2 3 9 9 9 9 9 8 8 8 8 8 7 7 7 7 6 6 5 5 5 5 4 3 3 3 2 2 2 2 4 6 3 2 2 1 4 6 6 5 5 5
1 1 1 7 8 8 9 9 9 9 9 9 8 8 8 8 7 7 6 6 5 5 5 4 4 4 3 2 1 1 2 4 4 2 2 1 1 5 6 5 5 5 6
4 4 4 5 6 8 9 9 9 10 10 10 10 9 9 9 8 8 7 7 6 6 5 5 4 4 4 3 2 1 1 3 4 3 2 2 4 5 6 6 5 5 6
7 6 5 6 6 6 7 9 9 10 10 10 10 10 10 10 9 9 8 8 7 7 6 6 5 5 5 4 3 2 2 3 3 2 3 2 4 5 6 5 6 6 6
7 6 5 5 5 5 6 8 9 10 10 10 11 11 11 11 10 10 9 9 9 8 8 7 7 6 6 5 4 2 2 3 2 2 2 3 5 5 6 6 6 6 6
7 5 5 5 5 5 5 6 7 8 8 8 9 11 10 5 5 6 8 10 10 10 9 9 8 7 6 5 4 3 1 1 2 2 2 5 6 6 6 6 6 6 6
6 5 4 5 5 5 5 4 3 3 4 4 4 4 3 3 4 6 7 11 12 11 10 10 9 8 5 1 1 1 1 1 1 2 3 7 7 7 6 6 6 6 6
5 6 6 5 5 4 3 3 2 2 2 3 4 4 3 3 3 4 2 5 6 7 5 5 5 2 2 2 1 1 2 2 1 2 3 7 8 8 7 7 7 7 7
5 6 6 6 5 5 4 3 3 2 2 2 3 4 3 2 3 3 3 3 3 2 3 3 3 3 3 3 3 3 3 2 2 2 3 8 8 8 8 8 8 7 7
6 7 7 6 5 5 4 3 3 3 3 3 3 3 3 3 3 3 3 3 4 3 3 4 4 4 4 4 4 4 4 4 4 4 3 8 8 9 9 9 9 8 8
7 7 7 6 5 5 4 4 3 3 3 3 3 3 3 2 3 3 3 3 4 4 4 4 4 4 4 3 4 5 5 5 5 5 4 5 9 9 9 10 10 10 9
6 7 7 6 6 6 5 5 4 3 3 3 3 3 3 3 3 3 3 3 3 3 4 3 3 3 3 4 4 5 4 5 5 6 5 4 4 8 9 10 10 11 10
6 7 7 8 7 7 6 5 4 4 4 3 3 3 3 3 3 3 3 3 3 3 3 3 3 3 3 3 3 3 3 3 5 5 5 5 4 4 7 10 10 10 11
6 6 7 7 7 7 7 5 5 4 4 3 3 3 3 4 3 3 3 3 3 2 3 3 3 3 4 4 3 3 2 3 4 5 6 6 6 5 4 7 10 10 10
5 6 6 7 7 7 6 5 4 4 3 3 3 3 4 3 3 3 3 3 3 2 3 3 3 4 3 3 3 2 2 2 2 4 6 5 5 6 5 5 5 7 10
6 6 7 7 7 6 5 5 5 5 4 4 3 4 4 4 4 3 3 3 3 3 4 4 3 4 3 3 2 1 1 1 2 3 3 4 5 6 6 6 5 4 4
6 6 6 7 7 7 5 4 3 4 4 3 3 4 4 5 4 4 3 3 3 3 4 4 4 3 3 4 3 2 1 2 2 2 3 4 5 5 6 7 6 6 5
6 6 6 7 7 7 6 4 5 3 3 3 4 4 4 5 4 4 4 3 4 4 4 5 5 5 4 4 4 4 4 4 1 1 2 3 4 4 5 5 7 7 7
6 6 6 6 6 6 6 5 6 5 4 4 4 4 6 5 4 4 4 4 4 4 5 5 6 5 5 4 4 3 2 3 3 2 1 2 4 5 6 6 7 7 7
5 5 5 6 6 6 6 6 5 5 4 4 5 6 5 5 4 4 4 3 3 4 5 6 5 6 5 5 4 4 3 2 2 2 2 2 2 3 4 5 5 6 7
5 5 5 6 6 6 6 6 6 6 7 7 7 7 6 4 4 5 4 3 3 4 5 5 6 7 7 7 6 5 5 4 5 4 3 3 3 2 3 4 4 5 6
Wind_Direction
194 190 182 164 162 160 160 155 151 149 148 147 146 146 144 144 144 144 142 139 134 129 127 126 119 113 110 107 105 106 104 102 99 96 96 95 102 113 113 112 109 106 110
158 171 178 168 167 167 167 166 164 162 159 158 157 156 155 153 152 151 152 152 152 149 147 145 138 129 121 115 110 108 109 109 105 101 95 93 101 114 118 120 119 118 117
144 163 173 171 173 174 175 174 174 173 170 169 168 167 166 165 163 162 163 163 164 164 161 159 158 150 137 122 112 108 110 119 119 111 96 72 90 115 123 127 128 124 125
151 158 172 179 180 182 182 181 181 181 179 178 179 178 178 177 175 175 174 175 174 174 172 172 170 167 156 129 111 105 108 127 131 119 95 76 84 119 126 130 130 128 129
155 158 183 186 187 190 191 191 190 190 189 188 188 188 188 187 187 187 186 185 184 183 183 183 188 188 174 147 115 101 110 129 129 113 101 83 74 124 128 129 128 129 132
138 140 203 198 198 199 201 201 202 201 200 200 200 200 199 199 198 197 198 197 194 194 196 196 204 204 197 175 140 104 106 125 118 112 111 104 96 128 126 124 125 129 134
85 102 262 220 214 214 214 215 214 213 212 213 213 211 210 210 209 207 208 207 206 207 207 208 215 218 218 205 174 132 122 134 132 133 134 137 165 140 129 122 118 121 125
34 15 345 284 250 236 230 229 229 227 224 224 224 223 220 218 216 215 216 215 215 218 217 217 222 228 230 227 216 187 144 135 148 154 162 177 177 149 134 128 129 128 123
44 28 3 349 334 305 279 258 246 242 238 236 234 231 229 227 225 222 222 222 222 224 224 225 227 233 238 238 234 220 186 143 145 174 182 190 185 159 144 137 130 130 121
43 31 15 2 359 347 327 305 287 269 258 252 246 240 236 234 232 230 227 228 229 229 229 230 231 235 241 245 244 237 181 133 160 186 190 207 196 173 159 148 135 131 126
30 14 10 3 357 344 324 326 325 310 292 275 259 251 245 237 235 238 235 231 233 235 235 234 235 237 241 250 256 251 155 149 181 200 204 218 203 186 170 159 147 137 130
9 357 360 352 349 344 337 335 324 318 312 299 281 265 250 231 226 233 236 240 238 238 239 239 238 238 238 210 275 309 125 193 199 213 217 223 209 194 183 174 164 153 142
350 351 347 342 337 335 330 328 323 318 314 309 295 288 271 248 230 232 223 244 248 246 238 241 243 224 193 186 198 201 207 214 218 229 232 236 220 201 193 186 178 170 159
351 345 340 340 339 337 334 323 317 313 304 293 287 287 275 262 243 228 221 221 223 225 219 211 205 204 204 206 209 217 222 222 220 224 237 243 230 211 202 195 188 182 174
354 343 335 333 335 332 332 321 326 312 303 297 291 283 272 262 256 244 235 226 224 218 217 211 202 202 209 214 217 221 226 227 224 222 229 239 231 216 208 201 195 191 186
347 340 331 332 337 335 329 320 310 307 300 297 294 285 274 259 253 243 238 233 229 221 217 209 201 198 208 210 220 221 224 223 222 219 216 231 229 214 208 203 200 198 193
336 334 335 336 347 336 326 319 317 306 306 301 297 296 288 273 257 242 234 236 234 226 217 203 201 195 204 212 222 221 221 221 218 215 211 207 214 212 205 203 204 202 198
338 338 338 345 343 336 329 318 309 307 305 297 296 296 291 282 269 253 239 238 235 226 212 204 199 205 215 212 218 225 225 224 221 213 206 200 195 198 203 204 202 202 202
337 334 335 337 338 334 327 319 310 306 302 296 297 294 290 287 274 252 246 244 232 221 211 216 203 198 216 216 221 228 229 230 226 215 205 200 195 189 186 203 203 201 204
333 333 333 335 336 333 328 325 321 319 312 304 299 296 297 291 282 259 247 245 232 221 217 209 206 200 205 206 234 238 234 235 221 209 206 198 193 192 186 189 197 206 207
336 340 338 339 337 342 340 339 332 327 320 317 311 307 304 297 289 267 257 242 227 222 221 211 199 205 208 169 166 247 285 250 221 215 200 191 196 195 183 188 190 190 203
328 331 334 337 335 340 337 324 306 301 300 296 304 312 306 300 292 280 252 243 228 225 225 214 197 189 199 174 167 155 240 287 258 216 194 199 201 187 192 197 191 192 190
327 329 331 329 331 336 338 333 330 330 320 330 332 325 313 306 294 277 265 249 233 220 225 219 205 199 201 194 184 167 173 208 225 250 210 201 190 191 199 192 195 195 194
316 321 325 328 330 337 344 349 350 344 334 319 317 312 313 310 303 290 274 255 243 232 230 226 217 211 201 200 197 198 178 154 163 205 251 209 197 200 200 199 198 196 194
314 322 325 331 334 340 348 350 348 342 325 317 323 326 329 326 320 313 296 281 262 247 241 234 223 213 208 203 190 178 173 168 168 166 194 195 209 210 200 199 193 193 194
316 325 332 337 333 340 346 350 353 345 340 341 342 341 336 331 331 337 320 302 285 267 254 244 232 220 216 209 200 188 174 174 182 177 181 182 197 208 196 199 196 193 192